VKG7AJ EKRN-LGSK

Flight info

Callsign VKG7AJ
Flight time N/A
Altitude 35000
Route ROE L996 DENKO DCT VALPI DCT NIT DCT ALAMU DCT VEBOS DCT TONDO DCT RAXAD DCT SKP
Aircraft A321/M-SDE3FGHIRWY/LB1

Departure

Time 2026-05-05 11:56
Airport Bornholm Airport (EKRN)

Arrival

Time N/A
Airport Skiathos Island National Airport (LGSK)
Time Latitude Longitude Altitude Speed Heading
2026-05-05 11:37 55.06901 14.74904 54 ft 0 kts 113°
2026-05-05 11:43 55.06902 14.74904 53 ft 0 kts 113°
2026-05-05 11:48 55.06902 14.74903 53 ft 0 kts 113°
2026-05-05 11:53 55.06897 14.74915 52 ft 1 kts 129°
2026-05-05 11:54 55.06876 14.74904 53 ft 9 kts 200°
2026-05-05 11:54 55.06852 14.74844 53 ft 7 kts 297°
2026-05-05 11:54 55.06872 14.74725 53 ft 11 kts 255°
2026-05-05 11:54 55.06826 14.74632 53 ft 10 kts 222°
2026-05-05 11:55 55.06787 14.74549 53 ft 8 kts 243°
2026-05-05 11:55 55.06752 14.74483 53 ft 7 kts 220°
2026-05-05 11:55 55.06713 14.74460 53 ft 5 kts 183°
2026-05-05 11:55 55.06695 14.74502 53 ft 10 kts 117°
2026-05-05 11:56 55.06552 14.75062 51 ft 91 kts 114°
2026-05-05 11:56 55.06208 14.76430 48 ft 155 kts 114°
2026-05-05 11:56 55.05728 14.78302 549 ft 168 kts 115°
2026-05-05 11:56 55.05259 14.80117 1494 ft 161 kts 114°
2026-05-05 11:57 55.04582 14.81711 2041 ft 174 kts 147°
2026-05-05 11:57 55.03418 14.82426 2316 ft 184 kts 169°
2026-05-05 11:57 55.02107 14.82829 2535 ft 199 kts 172°
2026-05-05 11:57 55.00663 14.83118 2687 ft 218 kts 176°
2026-05-05 11:58 54.99080 14.83416 2870 ft 239 kts 173°
2026-05-05 11:58 54.97362 14.83890 3214 ft 258 kts 171°
2026-05-05 11:58 54.95595 14.84425 3891 ft 264 kts 172°
2026-05-05 11:58 54.93774 14.84984 4643 ft 268 kts 173°
2026-05-05 11:59 54.91930 14.85544 5385 ft 270 kts 173°
2026-05-05 11:59 54.90072 14.86100 6160 ft 272 kts 174°
2026-05-05 11:59 54.88203 14.86651 6884 ft 274 kts 174°
2026-05-05 11:59 54.86316 14.87202 7573 ft 276 kts 174°
2026-05-05 12:00 54.84411 14.87757 8258 ft 279 kts 174°
2026-05-05 12:00 54.82486 14.88314 8948 ft 282 kts 174°
2026-05-05 12:00 54.80541 14.88876 9633 ft 285 kts 174°
2026-05-05 12:00 54.78599 14.89435 10177 ft 292 kts 174°
2026-05-05 12:01 54.76516 14.90027 10309 ft 314 kts 174°
2026-05-05 12:01 54.74289 14.90656 10431 ft 334 kts 174°
2026-05-05 12:01 54.71941 14.91323 10722 ft 347 kts 174°
2026-05-05 12:01 54.69539 14.92018 11270 ft 352 kts 174°
2026-05-05 12:02 54.67112 14.92724 11867 ft 355 kts 174°
2026-05-05 12:02 54.64661 14.93435 12470 ft 359 kts 174°
2026-05-05 12:02 54.62188 14.94145 13111 ft 362 kts 174°
2026-05-05 12:02 54.59725 14.94847 13742 ft 365 kts 174°
2026-05-05 12:03 54.57215 14.95560 14391 ft 367 kts 174°
2026-05-05 12:03 54.54689 14.96278 15034 ft 369 kts 174°
2026-05-05 12:03 54.52146 14.97005 15657 ft 372 kts 174°
2026-05-05 12:03 54.49588 14.97738 16300 ft 374 kts 174°
2026-05-05 12:04 54.47014 14.98473 16920 ft 377 kts 174°
2026-05-05 12:04 54.44417 14.99212 17503 ft 379 kts 175°
2026-05-05 12:04 54.41806 14.99952 18061 ft 382 kts 175°
2026-05-05 12:04 54.39217 15.00755 18520 ft 384 kts 173°
2026-05-05 12:05 54.36589 15.01680 18964 ft 386 kts 172°
2026-05-05 12:05 54.33960 15.02668 19421 ft 388 kts 172°
2026-05-05 12:05 54.31325 15.03679 19839 ft 389 kts 172°
2026-05-05 12:05 54.28672 15.04689 20255 ft 391 kts 172°
2026-05-05 12:06 54.26005 15.05681 20659 ft 393 kts 173°
2026-05-05 12:06 54.23325 15.06654 21104 ft 394 kts 173°
2026-05-05 12:06 54.20632 15.07615 21545 ft 396 kts 173°
2026-05-05 12:06 54.17934 15.08571 21984 ft 397 kts 173°
2026-05-05 12:07 54.15260 15.09517 22404 ft 398 kts 173°
2026-05-05 12:07 54.12541 15.10486 22837 ft 400 kts 173°
2026-05-05 12:07 54.09816 15.11459 23246 ft 401 kts 173°
2026-05-05 12:07 54.07078 15.12431 23619 ft 403 kts 173°
2026-05-05 12:08 54.04328 15.13406 23962 ft 405 kts 173°
2026-05-05 12:08 54.01558 15.14386 24255 ft 408 kts 173°
2026-05-05 12:08 53.98773 15.15369 24582 ft 410 kts 173°
2026-05-05 12:08 53.95971 15.16356 24924 ft 412 kts 173°
2026-05-05 12:09 53.93157 15.17348 25267 ft 414 kts 174°
2026-05-05 12:09 53.90367 15.18331 25610 ft 416 kts 174°
2026-05-05 12:09 53.87526 15.19330 25965 ft 418 kts 174°
2026-05-05 12:09 53.84670 15.20335 26298 ft 420 kts 174°
2026-05-05 12:10 53.81804 15.21343 26609 ft 421 kts 174°
2026-05-05 12:10 53.78929 15.22353 26895 ft 423 kts 174°
2026-05-05 12:10 53.76036 15.23367 27121 ft 426 kts 174°
2026-05-05 12:10 53.73121 15.24384 27356 ft 429 kts 174°
2026-05-05 12:11 53.70194 15.25402 27620 ft 431 kts 174°
2026-05-05 12:11 53.67289 15.26409 27877 ft 433 kts 174°
2026-05-05 12:11 53.64332 15.27427 28130 ft 435 kts 174°
2026-05-05 12:11 53.61362 15.28449 28396 ft 437 kts 174°
2026-05-05 12:12 53.58384 15.29484 28658 ft 438 kts 174°
2026-05-05 12:12 53.55389 15.30530 28913 ft 440 kts 174°
2026-05-05 12:12 53.52382 15.31584 29177 ft 442 kts 174°
2026-05-05 12:12 53.49367 15.32652 29408 ft 445 kts 173°
2026-05-05 12:13 53.46386 15.34213 29666 ft 454 kts 163°
2026-05-05 12:13 53.43495 15.36408 29975 ft 456 kts 161°
2026-05-05 12:13 53.40655 15.38613 30267 ft 456 kts 161°
2026-05-05 12:13 53.37773 15.40841 30581 ft 455 kts 161°
2026-05-05 12:14 53.34900 15.43052 30903 ft 454 kts 161°
2026-05-05 12:14 53.32028 15.45247 31227 ft 453 kts 161°
2026-05-05 12:14 53.29158 15.47427 31553 ft 452 kts 162°
2026-05-05 12:14 53.26295 15.49595 31894 ft 452 kts 162°
2026-05-05 12:15 53.23440 15.51764 32280 ft 451 kts 161°
2026-05-05 12:15 53.20624 15.53911 32521 ft 452 kts 161°
2026-05-05 12:15 53.17758 15.56096 32787 ft 453 kts 161°
2026-05-05 12:15 53.14894 15.58278 33089 ft 453 kts 161°
2026-05-05 12:16 53.12031 15.60453 33389 ft 452 kts 161°
2026-05-05 12:16 53.09169 15.62620 33684 ft 451 kts 161°
2026-05-05 12:16 53.06312 15.64780 33966 ft 451 kts 161°
2026-05-05 12:16 53.03457 15.66935 34214 ft 450 kts 161°
2026-05-05 12:17 53.00607 15.69086 34446 ft 450 kts 161°
2026-05-05 12:17 52.97794 15.71203 34666 ft 450 kts 161°
2026-05-05 12:17 52.94944 15.73343 34844 ft 450 kts 161°
2026-05-05 12:17 52.92091 15.75482 34895 ft 449 kts 161°
2026-05-05 12:18 52.86405 15.79730 34893 ft 448 kts 161°
2026-05-05 12:18 52.80716 15.83918 34894 ft 447 kts 163°
2026-05-05 12:19 52.74934 15.87608 34887 ft 445 kts 166°
2026-05-05 12:19 52.69142 15.90962 34887 ft 444 kts 166°
2026-05-05 12:20 52.63311 15.94366 34862 ft 445 kts 166°
2026-05-05 12:20 52.57490 15.97869 34867 ft 446 kts 165°
2026-05-05 12:21 52.51670 16.01404 34871 ft 446 kts 165°
2026-05-05 12:21 52.45881 16.04891 34874 ft 446 kts 165°
2026-05-05 12:22 52.40045 16.08384 34865 ft 447 kts 165°
2026-05-05 12:22 52.34206 16.11861 34864 ft 447 kts 165°
2026-05-05 12:23 52.28365 16.15330 34869 ft 447 kts 165°
2026-05-05 12:23 52.22566 16.18769 34869 ft 446 kts 165°
2026-05-05 12:24 52.16725 16.22230 34879 ft 447 kts 165°
2026-05-05 12:24 52.10871 16.25686 34858 ft 447 kts 165°
2026-05-05 12:25 52.05024 16.29123 34853 ft 446 kts 165°
2026-05-05 12:25 51.99195 16.32542 34860 ft 446 kts 165°
2026-05-05 12:26 51.93404 16.35933 34851 ft 445 kts 165°
2026-05-05 12:26 51.87575 16.39329 34846 ft 445 kts 165°
2026-05-05 12:27 51.81745 16.42712 34845 ft 445 kts 165°
2026-05-05 12:27 51.75959 16.46066 34853 ft 445 kts 165°
2026-05-05 12:28 51.70136 16.49436 34851 ft 445 kts 165°
2026-05-05 12:28 51.64308 16.52799 34855 ft 445 kts 165°
2026-05-05 12:29 51.58481 16.56147 34831 ft 445 kts 165°
2026-05-05 12:29 51.52658 16.59486 34834 ft 444 kts 164°
2026-05-05 12:30 51.46874 16.62797 34837 ft 444 kts 165°
2026-05-05 12:30 51.41055 16.66123 34841 ft 444 kts 165°
2026-05-05 12:31 51.35235 16.69439 34836 ft 444 kts 165°
2026-05-05 12:31 51.29418 16.72753 34821 ft 444 kts 164°
2026-05-05 12:32 51.23640 16.76025 34821 ft 444 kts 165°
2026-05-05 12:32 51.17815 16.79297 34821 ft 444 kts 165°
2026-05-05 12:33 51.11995 16.82564 34813 ft 444 kts 164°
2026-05-05 12:33 51.06178 16.85838 34816 ft 444 kts 164°
2026-05-05 12:34 51.00356 16.89097 34791 ft 444 kts 164°
2026-05-05 12:34 50.94570 16.92331 34796 ft 444 kts 164°
2026-05-05 12:35 50.88746 16.95578 34797 ft 444 kts 164°
2026-05-05 12:35 50.82919 16.98814 34797 ft 444 kts 165°
2026-05-05 12:36 50.77085 17.02035 34795 ft 444 kts 164°
2026-05-05 12:36 50.71294 17.05242 34803 ft 444 kts 164°
2026-05-05 12:37 50.65458 17.08461 34802 ft 444 kts 164°
2026-05-05 12:37 50.59626 17.11671 34811 ft 444 kts 164°
2026-05-05 12:38 50.53797 17.14867 34812 ft 444 kts 164°
2026-05-05 12:38 50.48006 17.18034 34821 ft 443 kts 164°
2026-05-05 12:39 50.42182 17.21204 34828 ft 443 kts 164°
2026-05-05 12:39 50.36362 17.24370 34830 ft 442 kts 164°
2026-05-05 12:40 50.30545 17.27535 34832 ft 443 kts 164°
2026-05-05 12:40 50.24767 17.30665 34824 ft 442 kts 164°
2026-05-05 12:41 50.18956 17.33807 34837 ft 442 kts 164°
2026-05-05 12:41 50.13143 17.36927 34832 ft 442 kts 163°
2026-05-05 12:42 50.07333 17.40042 34849 ft 441 kts 164°
2026-05-05 12:42 50.01566 17.43139 34849 ft 441 kts 163°
2026-05-05 12:43 49.95760 17.46244 34843 ft 441 kts 164°
2026-05-05 12:43 49.89954 17.49334 34838 ft 441 kts 163°
2026-05-05 12:44 49.84145 17.52412 34839 ft 441 kts 163°
2026-05-05 12:44 49.78379 17.55470 34852 ft 441 kts 164°
2026-05-05 12:45 49.72583 17.58536 34859 ft 440 kts 164°
2026-05-05 12:45 49.66789 17.61599 34860 ft 440 kts 165°
2026-05-05 12:46 49.60996 17.64641 34855 ft 440 kts 164°
2026-05-05 12:46 49.55198 17.67690 34855 ft 440 kts 164°
2026-05-05 12:47 49.49445 17.70708 34850 ft 440 kts 164°
2026-05-05 12:47 49.43646 17.73740 34849 ft 440 kts 163°
2026-05-05 12:48 49.37853 17.76757 34856 ft 440 kts 163°
2026-05-05 12:48 49.32046 17.79773 34857 ft 440 kts 164°
2026-05-05 12:49 49.26280 17.82759 34860 ft 440 kts 163°
2026-05-05 12:49 49.20477 17.85770 34855 ft 440 kts 164°
2026-05-05 12:50 49.14670 17.88763 34854 ft 440 kts 164°
2026-05-05 12:50 49.08856 17.91742 34863 ft 441 kts 165°
2026-05-05 12:51 49.03070 17.94597 34877 ft 438 kts 170°
2026-05-05 12:51 48.97078 17.95767 34872 ft 434 kts 176°
2026-05-05 12:52 48.91065 17.96587 34876 ft 434 kts 177°
2026-05-05 12:52 48.85037 17.97428 34883 ft 435 kts 179°
2026-05-05 12:53 48.79055 17.98263 34891 ft 434 kts 179°
2026-05-05 12:53 48.73036 17.99090 34887 ft 434 kts 175°
2026-05-05 12:54 48.63995 18.00317 34881 ft 436 kts 178°
2026-05-05 12:55 48.57952 18.01139 34886 ft 436 kts 178°
2026-05-05 12:55 48.51946 18.01960 34883 ft 436 kts 178°
2026-05-05 12:56 48.45908 18.02773 34888 ft 436 kts 179°
2026-05-05 12:56 48.39861 18.03596 34895 ft 436 kts 177°
2026-05-05 12:57 48.33811 18.04418 34900 ft 436 kts 176°
2026-05-05 12:57 48.27795 18.05727 34893 ft 440 kts 166°
2026-05-05 12:58 48.22012 18.08650 34895 ft 442 kts 164°
2026-05-05 12:58 48.16189 18.11620 34895 ft 442 kts 164°
2026-05-05 12:59 48.10355 18.14564 34897 ft 443 kts 164°
2026-05-05 12:59 48.04521 18.17514 34899 ft 443 kts 164°
2026-05-05 13:00 47.95807 18.21911 34907 ft 443 kts 163°
2026-05-05 13:01 47.84127 18.27794 34922 ft 443 kts 164°
2026-05-05 13:01 47.78284 18.30710 34925 ft 443 kts 165°
2026-05-05 13:02 47.72530 18.33814 34932 ft 445 kts 157°
2026-05-05 13:02 47.66957 18.37840 34933 ft 445 kts 157°
2026-05-05 13:03 47.61388 18.41858 34938 ft 445 kts 156°
2026-05-05 13:03 47.55812 18.45845 34933 ft 445 kts 157°
2026-05-05 13:04 47.50231 18.49810 34939 ft 445 kts 156°
2026-05-05 13:04 47.44685 18.53748 34936 ft 445 kts 157°
2026-05-05 13:05 47.39110 18.57712 34940 ft 445 kts 157°
2026-05-05 13:05 47.33531 18.61680 34939 ft 445 kts 156°
2026-05-05 13:06 47.27951 18.65491 34937 ft 444 kts 159°
2026-05-05 13:06 47.22209 18.68850 34940 ft 444 kts 161°
2026-05-05 13:07 47.16437 18.72051 34940 ft 444 kts 161°
2026-05-05 13:07 47.10673 18.75317 34948 ft 444 kts 161°
2026-05-05 13:08 47.04931 18.78659 34943 ft 444 kts 161°
2026-05-05 13:08 46.99220 18.81990 34945 ft 445 kts 161°
2026-05-05 13:09 46.93464 18.85317 34949 ft 445 kts 161°
2026-05-05 13:09 46.87703 18.88629 34954 ft 445 kts 161°
2026-05-05 13:10 46.81941 18.91937 34949 ft 445 kts 161°
2026-05-05 13:10 46.76213 18.95227 34951 ft 446 kts 161°
2026-05-05 13:11 46.70443 18.98536 34951 ft 446 kts 160°
2026-05-05 13:11 46.64668 19.01833 34955 ft 446 kts 161°
2026-05-05 13:12 46.58890 19.05114 34950 ft 446 kts 161°
2026-05-05 13:12 46.53146 19.08370 34949 ft 446 kts 161°
2026-05-05 13:13 46.47356 19.11653 34952 ft 447 kts 160°
2026-05-05 13:13 46.41564 19.14929 34956 ft 447 kts 161°
2026-05-05 13:14 46.36745 19.17642 34950 ft 447 kts 161°
2026-05-05 13:14 46.30001 19.21434 34946 ft 448 kts 160°
2026-05-05 13:15 46.24195 19.24698 34954 ft 448 kts 160°
2026-05-05 13:15 46.18388 19.27957 34959 ft 448 kts 160°
2026-05-05 13:16 46.13556 19.30661 34954 ft 448 kts 161°
2026-05-05 13:16 46.07737 19.33903 34952 ft 449 kts 161°
2026-05-05 13:17 46.01213 19.38498 34949 ft 451 kts 151°
2026-05-05 13:17 45.96694 19.42263 34953 ft 452 kts 152°
2026-05-05 13:18 45.91244 19.46768 34955 ft 452 kts 152°
2026-05-05 13:18 45.85786 19.51262 34949 ft 453 kts 152°
2026-05-05 13:19 45.80325 19.55770 34952 ft 453 kts 152°
2026-05-05 13:19 45.74891 19.60246 34961 ft 454 kts 152°
2026-05-05 13:20 45.69416 19.64734 34968 ft 454 kts 152°
2026-05-05 13:20 45.63938 19.69216 34947 ft 454 kts 152°
2026-05-05 13:21 45.58452 19.73697 34954 ft 455 kts 152°
2026-05-05 13:21 45.52953 19.78176 34953 ft 455 kts 152°
2026-05-05 13:22 45.47488 19.82616 34957 ft 455 kts 152°
2026-05-05 13:22 45.41978 19.87086 34956 ft 456 kts 152°
2026-05-05 13:23 45.36465 19.91550 34959 ft 456 kts 152°
2026-05-05 13:23 45.30938 19.96007 34959 ft 457 kts 152°
2026-05-05 13:24 45.25443 20.00432 34968 ft 457 kts 152°
2026-05-05 13:24 45.19906 20.04877 34966 ft 458 kts 152°
2026-05-05 13:25 45.14361 20.09325 34961 ft 458 kts 152°
2026-05-05 13:25 45.08809 20.13771 34961 ft 459 kts 152°
2026-05-05 13:26 45.03246 20.18208 34967 ft 459 kts 152°
2026-05-05 13:26 44.97716 20.22608 34990 ft 459 kts 152°
2026-05-05 13:27 44.92145 20.27034 34992 ft 459 kts 152°
2026-05-05 13:27 44.86571 20.31455 34993 ft 460 kts 152°
2026-05-05 13:28 44.86139 20.31798 34994 ft 460 kts 152°